Retour au catalogue

COSMOS 677

ActifMilitaireLEO
NORAD 7435·PAYLOAD·🇷🇺 Russia

Lancé Sep 19, 1974 depuis Plesetsk Cosmodrome

Loading…

Prochains Passages (prochaines 24 heures)

TLE

FraisSource: Space-Track

Époque: Sep 14, 2026, 06:06 UTC

1 07435U 74072A   26257.25456736 -.00000012  00000-0  25030-4 0  9997
2 07435  74.0357 193.7685 0045338 271.8901 242.1179 12.58030836387388

Suivez COSMOS 677 en temps réel avec AllMySat

Download on the App Store